Location: Pian di Sc�
(43.6333°N, 11.5500°E)
Time: 16:59:17
(UTC+00:00)

Nadezhda 2 Rocket - Pass Details

Date: 07 August 2020
Orbit: 947 x 1012 km, 83.0° (Epoch: 18 September)

Event Time Altitude Azimuth Distance (km) Brightness Sun altitude
Rises 02:49:31 0° 350° (N) 3,696 7.9 -13.3°
Reaches altitude 10° 02:52:04 10° 349° (NNW) 2,735 7.2 -12.9°
Maximum altitude 02:58:17 74° 266° (W) 1,006 4.4 -12.0°
Drops below altitude 10° 03:04:23 10° 182° (S) 2,676 6.4 -11.1°
Sets 03:06:51 0° 180° (S) 3,611 7.1 -10.7°
